[[{"header":{"parameterUnit":"m.s-1","parameterCategory":2,"la1":30.2991,"la2":30.254,"lo1":-89.0895,"lo2":-89.0444,"dy":0.0017,"dx":0.0017,"nx":28,"ny":28,"refTime":"2024-07-06T09:00:00:Z","depth":"0","parameterNumber":2,"parameterNumberName":"U-component_of_CURRENTS"},"data":[0,0,0,0,0,0,0,0,0,0,0,0,0,0,0,0,0,0,0,0,0,0,0,0,0,0,0,0,0,0,0,0,0,0,0,0,0,0,0,0,0,0,0,0,0,0,0,0,0,0,0,0,0,0,0,0,0,0,-0.4102,-0.4102,0,-0.4074,-0.4073,-0.4072,-0.3989,-0.3988,-0.3987,-0.3986,-0.3841,-0.3839,-0.3836,0,0,0,0,0,0,0,0,0,0,0,0,0,-0.3945,-0.3949,-0.4102,-0.4102,-0.4103,-0.4074,-0.4073,-0.4072,-0.3989,-0.3988,-0.3987,-0.3985,-0.3842,-0.3839,-0.3836,0,0,0,0,0,0,0,0,0,0,0,0,0,-0.3968,-0.395,-0.4102,-0.4064,-0.406,-0.4074,-0.4073,-0.4071,-0.399,-0.3988,-0.3986,-0.3985,-0.3843,-0.3839,-0.3835,-0.3843,0,0,-0.3822,-0.3821,0,0,0,0,0,0,0,0,-0.3967,-0.3973,-0.4069,-0.4066,-0.4063,-0.404,-0.3965,-0.3992,-0.399,-0.4009,-0.3986,-0.3984,-0.3903,-0.3894,-0.3883,-0.3837,-0.383,-0.3822,-0.382,-0.3818,-0.3817,0,0,0,0,0,0,0,-0.3966,-0.3973,-0.4083,-0.407,-0.4066,-0.4,-0.4002,-0.3969,-0.3958,-0.4007,-0.4003,-0.4012,-0.3899,-0.3888,-0.3879,-0.3828,-0.3822,-0.3818,-0.3816,-0.3814,-0.3831,-0.3834,0,0,0,0,0,0,-0.3994,-0.3973,-0.4084,-0.4083,-0.4018,-0.4006,-0.4007,-0.4043,-0.3961,-0.395,-0.4013,-0.4008,-0.3896,-0.3884,-0.3874,-0.3928,-0.3818,-0.3814,-0.3811,-0.3828,-0.3831,-0.3835,0,0,0,0,0,0,-0.3991,-0.4006,-0.4086,-0.4031,-0.4037,-0.4012,-0.4051,-0.4043,-0.4031,-0.3968,-0.3953,-0.401,-0.3894,-0.388,-0.3864,-0.3919,-0.3812,-0.3808,-0.3824,-0.3829,-0.3833,-0.4004,0,0,0,0,0,0,-0.3987,-0.4005,-0.4025,-0.4034,-0.4042,-0.4131,-0.4054,-0.4044,-0.4043,-0.4036,-0.3961,-0.3945,-0.3892,-0.3871,-0.386,-0.3912,-0.3805,-0.3821,-0.3826,-0.3832,-0.3995,-0.4014,-0.403,0,0,0,0,0,-0.3982,-0.4034,-0.4027,-0.4039,-0.4076,-0.4135,-0.4133,-0.4101,-0.4045,-0.4074,-0.401,-0.3948,-0.3899,-0.387,-0.3856,-0.3908,-0.3818,-0.3825,-0.3831,-0.3987,-0.401,-0.403,0,0,0,0,0,0,-0.3969,-0.4031,-0.4023,-0.4088,-0.4124,-0.4124,-0.4142,-0.4111,-0.4083,-0.4056,-0.3975,-0.3959,-0.3975,-0.3918,-0.3889,-0.3932,-0.3853,-0.3857,-0.3976,-0.3997,-0.4014,-0.4009,-0.3801,0,0,0,0,0,-0.3982,-0.4036,-0.4082,-0.4131,-0.416,-0.4147,-0.4155,-0.414,-0.4124,-0.4108,-0.4057,-0.4006,-0.3995,-0.3975,-0.3955,-0.3964,-0.3858,-0.3993,-0.4011,-0.4026,-0.4015,-0.392,-0.3927,-0.3856,-0.3856,-0.3856,0,0,-0.3985,-0.4027,-0.4053,-0.4131,-0.4148,-0.4211,-0.4148,-0.4184,-0.4213,-0.4097,-0.4106,-0.4068,-0.4015,-0.4041,-0.4042,-0.3994,-0.3991,-0.4034,-0.4048,-0.4028,-0.3928,-0.3934,-0.3939,-0.3861,-0.386,-0.3859,0,0,-0.4013,-0.4072,-0.4113,-0.4186,-0.4238,-0.4249,-0.4268,-0.4284,-0.4273,-0.4288,-0.4221,-0.4207,-0.4178,-0.4156,-0.4139,-0.4237,-0.4097,-0.4245,-0.4315,-0.4226,-0.4229,-0.4231,-0.4097,-0.4086,-0.4243,-0.4243,-0.4243,0,-0.3995,-0.408,-0.4134,-0.4218,-0.4276,-0.4278,-0.4343,-0.436,-0.4356,-0.4331,-0.4315,-0.4249,-0.4233,-0.4228,-0.4296,-0.4276,-0.4179,-0.4239,-0.4245,-0.4245,-0.4244,-0.4106,-0.4091,-0.4252,-0.4251,-0.425,-0.4249,0,-0.4048,-0.4149,-0.42,-0.4306,-0.4379,-0.445,-0.4509,-0.4527,-0.4501,-0.4478,-0.446,-0.4426,-0.4362,-0.44,-0.4392,-0.4395,-0.4313,-0.4285,-0.4184,-0.4261,-0.4111,-0.4092,-0.4265,-0.4262,-0.4259,-0.4257,0,0,-0.3912,-0.4174,-0.4191,-0.4275,-0.4437,-0.4487,-0.4575,-0.461,-0.4579,-0.4595,-0.4539,-0.4593,-0.4517,-0.4496,-0.4466,-0.4437,-0.4393,-0.4385,-0.4376,-0.4239,-0.415,-0.3846,-0.3794,-0.4361,-0.4359,-0.4358,-0.4043,0,-0.3913,-0.4085,-0.4219,-0.4378,-0.4475,-0.4577,-0.4636,-0.4673,-0.4658,-0.4612,-0.458,-0.4534,-0.4569,-0.4525,-0.4509,-0.4442,-0.4354,-0.4478,-0.4106,-0.4094,-0.3803,-0.3766,-0.3682,-0.3373,-0.4024,-0.4021,-0.4018,0,-0.3895,-0.402,-0.4175,-0.4403,-0.4445,-0.4527,-0.4582,-0.4646,-0.4627,-0.4602,-0.4557,-0.4501,-0.4498,-0.4485,-0.4358,-0.4434,-0.4298,-0.4227,-0.4211,-0.3847,-0.3753,-0.3404,-0.3312,-0.3336,-0.3988,-0.399,-0.3992,0,-0.3732,-0.3994,-0.4102,-0.4199,-0.4428,-0.4474,-0.4564,-0.4598,-0.4609,-0.4574,-0.4523,-0.4477,-0.441,-0.4319,-0.4167,-0.4275,-0.3933,-0.4043,-0.3604,-0.3579,-0.3387,-0.3347,-0.3255,-0.3854,-0.3855,-0.3856,-0.3857,0,-0.3684,-0.3787,-0.4032,-0.4102,-0.4186,-0.4377,-0.4404,-0.4472,-0.4491,-0.4428,-0.4485,-0.4342,-0.4369,-0.4169,-0.4085,-0.3723,-0.3829,-0.3568,-0.3464,-0.3441,-0.3411,-0.3322,-0.3401,-0.3844,-0.3847,-0.3849,-0.3851,0,-0.3528,-0.3693,-0.3843,-0.4067,-0.4129,-0.4187,-0.4374,-0.4358,-0.4411,-0.4326,-0.4315,-0.4241,-0.399,-0.3872,-0.3644,-0.3536,-0.3192,-0.3074,-0.301,-0.2902,-0.2621,-0.2712,-0.2408,-0.2337,-0.2653,-0.2643,-0.2635,0,-0.3481,-0.3533,-0.3779,-0.3837,-0.395,-0.4071,-0.4121,-0.4281,-0.4272,-0.4179,-0.4092,-0.3854,-0.3539,-0.3085,-0.2899,-0.2586,-0.2683,-0.2307,-0.2516,-0.2526,-0.2556,-0.2659,-0.2637,-0.2349,-0.2339,-0.2332,-0.2325,0,-0.3362,-0.3435,-0.3532,-0.3659,-0.3749,-0.3845,-0.3944,-0.3891,-0.3968,-0.3835,-0.3479,-0.3207,-0.2849,-0.2463,-0.2128,-0.1979,-0.2317,-0.2125,-0.2189,-0.2315,-0.2371,-0.2278,-0.2626,-0.2254,-0.2261,-0.2266,-0.227,-0.2273,-0.3217,-0.3247,-0.334,-0.3433,-0.3528,-0.3482,-0.339,-0.3405,-0.3215,-0.2863,-0.281,-0.2273,-0.2165,-0.1692,-0.1561,-0.1481,-0.1649,-0.1537,-0.1642,-0.1741,-0.1683,-0.1802,-0.1274,-0.1275,-0.1276,-0.1277,-0.1278,0,-0.2959,-0.3012,-0.3112,-0.315,-0.3106,-0.325,-0.315,-0.2932,-0.2508,-0.2248,-0.1828,-0.1329,-0.1133,-0.116,-0.1193,-0.1114,-0.1222,-0.1107,-0.1383,-0.1384,-0.152,-0.1521,-0.0954,-0.0954,-0.0954,-0.0955,-0.0955,-0.0955,-0.2796,-0.2764,-0.2821,-0.2665,-0.2685,-0.245,-0.2271,-0.1961,-0.1706,-0.1031,-0.0636,-0.0437,-0.0646,-0.1003,-0.1124,-0.1076,-0.1178,-0.1044,-0.11,-0.1398,-0.1455,-0.151,-0.1531,-0.0976,-0.0976,-0.0974,-0.0975,-0.0975]},{"header":{"parameterUnit":"m.s-1","parameterCategory":2,"la1":30.2991,"la2":30.254,"lo1":-89.0895,"lo2":-89.0444,"dy":0.0017,"dx":0.0017,"nx":28,"ny":28,"refTime":"2024-07-06T09:00:00:Z","depth":"0","parameterNumber":3,"parameterNumberName":"V-component_of_CURRENTS"},"data":[0,0,0,0,0,0,0,0,0,0,0,0,0,0,0,0,0,0,0,0,0,0,0,0,0,0,0,0,0,0,0,0,0,0,0,0,0,0,0,0,0,0,0,0,0,0,0,0,0,0,0,0,0,0,0,0,0,0,-0.0631,-0.0629,0,-0.0471,-0.0469,-0.0466,-0.0357,-0.0357,-0.0356,-0.0356,-0.0119,-0.0113,-0.0107,0,0,0,0,0,0,0,0,0,0,0,0,0,-0.0718,-0.0718,-0.0631,-0.0629,-0.0627,-0.0471,-0.0469,-0.0466,-0.0357,-0.0357,-0.0356,-0.0356,-0.0121,-0.0114,-0.0107,0,0,0,0,0,0,0,0,0,0,0,0,0,-0.0628,-0.0718,-0.0631,-0.0557,-0.0549,-0.0472,-0.0468,-0.0465,-0.0357,-0.0357,-0.0356,-0.0355,-0.0123,-0.0115,-0.0106,-0.0064,0,0,-0.0079,-0.0075,0,0,0,0,0,0,0,0,-0.0634,-0.0625,-0.057,-0.0562,-0.0553,-0.0437,-0.0413,-0.0329,-0.0357,-0.0426,-0.0356,-0.0355,-0.0221,-0.0204,-0.0171,-0.0053,-0.0043,-0.0078,-0.0073,-0.0069,-0.0066,0,0,0,0,0,0,0,-0.064,-0.063,-0.0563,-0.0568,-0.0558,-0.049,-0.0477,-0.0396,-0.0325,-0.042,-0.0413,-0.0401,-0.0215,-0.018,-0.0164,-0.0039,-0.0078,-0.007,-0.0065,-0.0061,0.0136,0.0136,0,0,0,0,0,0,-0.0675,-0.0637,-0.0568,-0.0559,-0.0597,-0.049,-0.0475,-0.0471,-0.0327,-0.0306,-0.0402,-0.0397,-0.0195,-0.0175,-0.0156,-0.0104,-0.0069,-0.0061,-0.0055,0.0136,0.0136,0.0136,0,0,0,0,0,0,-0.0678,-0.0671,-0.0575,-0.0597,-0.058,-0.0491,-0.0486,-0.0469,-0.0437,-0.0315,-0.0292,-0.039,-0.0194,-0.0168,-0.009,-0.0094,-0.0057,-0.0048,0.0136,0.0136,0.0136,0.0003,0,0,0,0,0,0,-0.0681,-0.0673,-0.068,-0.06,-0.0581,-0.0542,-0.0487,-0.0466,-0.0433,-0.0425,-0.0297,-0.0274,-0.0191,-0.0104,-0.0081,-0.0081,-0.0042,0.0136,0.0136,0.0136,0.0008,-0.0001,-0.0009,0,0,0,0,0,-0.0685,-0.0697,-0.0681,-0.0673,-0.0594,-0.0543,-0.0526,-0.0456,-0.0434,-0.0425,-0.0339,-0.0278,-0.0088,-0.0097,-0.007,-0.0068,0.0137,0.0136,0.0136,0.0012,0.0001,-0.0009,0,0,0,0,0,0,-0.0737,-0.0686,-0.0666,-0.0662,-0.0615,-0.0526,-0.0514,-0.047,-0.0396,-0.0389,-0.0275,-0.0246,-0.0175,-0.0106,-0.0119,-0.0011,0.0033,0.0038,-0.0071,-0.008,-0.0088,-0.0152,-0.0034,0,0,0,0,0,-0.0757,-0.0752,-0.0693,-0.069,-0.0677,-0.0601,-0.0572,-0.0529,-0.0456,-0.0423,-0.0333,-0.0239,-0.0153,-0.0109,-0.002,0.0035,0.0101,0.0054,0.0045,0.0038,0.0005,0.0052,0.0044,0.0136,0.0136,0.0136,0,0,-0.0776,-0.0748,-0.0745,-0.0701,-0.0661,-0.065,-0.0581,-0.0551,-0.0533,-0.0408,-0.0354,-0.026,-0.0144,-0.0077,-0.0041,-0.0023,0.0066,0.0037,0.003,0.0001,0.0051,0.0042,0.0034,0.0136,0.0136,0.0136,0,0,-0.0816,-0.0794,-0.0806,-0.0781,-0.0738,-0.069,-0.0692,-0.0614,-0.0572,-0.051,-0.0416,-0.0342,-0.0205,-0.0133,-0.0077,-0.0082,0.0022,-0.0042,-0.0139,-0.0092,-0.01,-0.0107,0.0041,0.0049,-0.0052,-0.0052,-0.0052,0,-0.0843,-0.0857,-0.08,-0.081,-0.0812,-0.0722,-0.0748,-0.0683,-0.0584,-0.0566,-0.0511,-0.034,-0.0237,-0.0173,-0.017,-0.0104,-0.0032,-0.0112,-0.0107,-0.0113,-0.0118,0.0035,0.0045,-0.0059,-0.0058,-0.0057,-0.0057,0,-0.0888,-0.0909,-0.0919,-0.0908,-0.0895,-0.0902,-0.0832,-0.0798,-0.0738,-0.0675,-0.0598,-0.0456,-0.037,-0.031,-0.0237,-0.0216,-0.0132,-0.0123,-0.0094,-0.0136,0.0031,0.0043,-0.0068,-0.0065,-0.0064,-0.0062,0,0,-0.0934,-0.0952,-0.0959,-0.0995,-0.0962,-0.096,-0.0942,-0.0909,-0.0899,-0.0787,-0.0769,-0.0622,-0.0558,-0.0493,-0.0384,-0.0336,-0.0264,-0.026,-0.0255,-0.0133,-0.009,0.002,0.0046,-0.0269,-0.0269,-0.027,0.0067,0,-0.0997,-0.1069,-0.105,-0.1118,-0.1159,-0.1104,-0.1102,-0.1056,-0.0975,-0.0918,-0.0791,-0.0714,-0.062,-0.0574,-0.0519,-0.0319,-0.0251,-0.0351,-0.0051,-0.004,0.0042,0.0054,0.0086,0.0388,0.008,0.0082,0.0084,0,-0.1059,-0.1104,-0.1203,-0.1262,-0.1275,-0.1292,-0.1297,-0.1273,-0.1172,-0.1114,-0.1032,-0.0906,-0.0782,-0.0715,-0.0444,-0.0513,-0.0338,-0.0185,-0.0169,-0.003,0.0087,0.0368,0.0424,0.0557,0.0104,0.0102,0.0101,0,-0.1149,-0.1217,-0.1314,-0.1333,-0.1367,-0.1404,-0.1406,-0.1345,-0.1317,-0.1232,-0.1176,-0.1038,-0.0886,-0.0735,-0.0387,-0.0434,-0.0057,-0.0076,0.0199,0.0215,0.0318,0.0341,0.0506,0.0063,0.0062,0.0061,0.006,0,-0.1247,-0.1316,-0.1368,-0.1421,-0.1529,-0.151,-0.1569,-0.1544,-0.1465,-0.1365,-0.1286,-0.1116,-0.0892,-0.0619,-0.0408,-0.0014,-0.0063,0.019,0.0283,0.0286,0.0301,0.0482,0.0524,0.0074,0.0071,0.0068,0.0066,0,-0.1347,-0.1375,-0.149,-0.1559,-0.1582,-0.1663,-0.1676,-0.1668,-0.16,-0.1452,-0.1421,-0.1138,-0.0765,-0.0498,-0.0117,0.0044,0.0461,0.0482,0.0529,0.0617,0.0908,0.0942,0.1224,0.1342,0.0793,0.0797,0.0801,0,-0.141,-0.1483,-0.1603,-0.1661,-0.1701,-0.1783,-0.1803,-0.1761,-0.1659,-0.1379,-0.1245,-0.0906,-0.0542,0.002,0.0314,0.0681,0.0752,0.0909,0.0774,0.0936,0.1042,0.1047,0.1123,0.0922,0.0926,0.0929,0.0932,0,-0.1529,-0.1575,-0.1664,-0.1776,-0.1834,-0.1864,-0.1821,-0.173,-0.1536,-0.134,-0.0875,-0.0592,-0.0083,0.0377,0.0752,0.0942,0.0991,0.0993,0.1119,0.1113,0.1169,0.1324,0.0764,0.0964,0.096,0.0958,0.0957,0.0955,-0.1596,-0.1693,-0.178,-0.1875,-0.1911,-0.18,-0.1682,-0.1495,-0.1229,-0.0669,-0.047,0.0106,0.044,0.0979,0.1162,0.1416,0.1342,0.1459,0.1493,0.149,0.1547,0.1098,0.1399,0.1399,0.1398,0.1398,0.1397,0,-0.1631,-0.1724,-0.1842,-0.187,-0.1823,-0.1844,-0.157,-0.1293,-0.0794,-0.0288,0.023,0.0882,0.1241,0.1467,0.1719,0.188,0.1879,0.1941,0.1917,0.1975,0.1559,0.1501,0.1885,0.1884,0.1884,0.1884,0.1884,0.1884,-0.1642,-0.1759,-0.1817,-0.1742,-0.1709,-0.1432,-0.1189,-0.0752,-0.0284,0.0572,0.1137,0.1551,0.1713,0.1982,0.221,0.2247,0.2405,0.2379,0.2488,0.2136,0.2091,0.2047,0.2001,0.2483,0.2484,0.287,0.2874,0.2877]}],[{"header":{"parameterUnit":"m.s-1","parameterCategory":2,"la1":30.2991,"la2":30.254,"lo1":-89.0895,"lo2":-89.0444,"dy":0.0017,"dx":0.0017,"nx":28,"ny":28,"refTime":"2024-07-06T09:00:00:Z","depth":"2","parameterNumber":2,"parameterNumberName":"U-component_of_CURRENTS"},"data":[0,0,0,0,0,0,0,0,0,0,0,0,0,0,0,0,0,0,0,0,0,0,0,0,0,0,0,0,0,0,0,0,0,0,0,0,0,0,0,0,0,0,0,0,0,0,0,0,0,0,0,0,0,0,0,0,0,0,-0.2492,-0.2492,0,-0.2525,-0.2526,-0.2527,-0.2492,-0.249,-0.2489,-0.2487,-0.2605,-0.2609,-0.2614,0,0,0,0,0,0,0,0,0,0,0,0,0,-0.246,-0.2461,-0.2492,-0.2492,-0.2492,-0.2525,-0.2526,-0.2527,-0.2492,-0.249,-0.2488,-0.2486,-0.2603,-0.2609,-0.2614,0,0,0,0,0,0,0,0,0,0,0,0,0,-0.2486,-0.2461,-0.2492,-0.2476,-0.2474,-0.2525,-0.2526,-0.2527,-0.2493,-0.249,-0.2488,-0.2485,-0.2601,-0.2608,-0.2615,-0.2711,0,0,-0.2637,-0.264,0,0,0,0,0,0,0,0,-0.2484,-0.2487,-0.2478,-0.2477,-0.2475,-0.2498,-0.2558,-0.2591,-0.2493,-0.249,-0.2487,-0.2484,-0.2576,-0.2585,-0.2602,-0.2716,-0.2721,-0.2637,-0.2642,-0.2645,-0.2647,0,0,0,0,0,0,0,-0.2482,-0.2486,-0.2509,-0.2478,-0.2477,-0.2488,-0.2488,-0.2564,-0.2552,-0.249,-0.2487,-0.2485,-0.2576,-0.2595,-0.2604,-0.2723,-0.2637,-0.2644,-0.2648,-0.2651,-0.2782,-0.2781,0,0,0,0,0,0,-0.247,-0.2484,-0.2508,-0.251,-0.2469,-0.249,-0.2491,-0.2497,-0.2549,-0.2553,-0.2487,-0.2483,-0.2584,-0.2596,-0.2609,-0.2606,-0.2645,-0.2651,-0.2655,-0.2783,-0.2782,-0.2781,0,0,0,0,0,0,-0.2469,-0.2472,-0.2507,-0.2494,-0.2498,-0.2492,-0.25,-0.2499,-0.2517,-0.2545,-0.255,-0.2505,-0.2583,-0.2599,-0.2699,-0.2614,-0.2655,-0.2661,-0.2783,-0.2782,-0.2781,-0.2677,0,0,0,0,0,0,-0.2469,-0.2472,-0.2476,-0.2493,-0.2498,-0.2519,-0.2502,-0.2501,-0.2518,-0.2513,-0.2564,-0.2571,-0.2582,-0.2689,-0.2706,-0.2625,-0.2667,-0.2784,-0.2783,-0.2782,-0.2682,-0.2673,-0.2665,0,0,0,0,0,-0.2467,-0.2462,-0.2477,-0.2479,-0.2503,-0.2519,-0.2524,-0.2513,-0.2521,-0.2524,-0.2588,-0.2569,-0.2686,-0.2699,-0.2718,-0.2635,-0.2785,-0.2783,-0.2782,-0.2686,-0.2675,-0.2665,0,0,0,0,0,0,-0.2442,-0.2459,-0.2474,-0.2474,-0.2494,-0.2511,-0.2511,-0.253,-0.2584,-0.2595,-0.2628,-0.2642,-0.267,-0.2705,-0.2715,-0.2666,-0.2706,-0.2708,-0.2625,-0.2616,-0.2608,-0.2671,-0.2673,0,0,0,0,0,-0.2446,-0.2446,-0.2474,-0.2474,-0.2488,-0.2516,-0.2526,-0.2534,-0.2579,-0.2597,-0.2616,-0.265,-0.2681,-0.2697,-0.273,-0.2764,-0.2807,-0.2703,-0.2695,-0.2687,-0.2752,-0.2827,-0.2833,-0.2775,-0.2775,-0.2775,0,0,-0.2433,-0.2444,-0.2443,-0.247,-0.2489,-0.2489,-0.2515,-0.2536,-0.2532,-0.2611,-0.2611,-0.2646,-0.2693,-0.2691,-0.27,-0.2709,-0.2693,-0.2685,-0.2678,-0.275,-0.2826,-0.2833,-0.2838,-0.2774,-0.2774,-0.2774,0,0,-0.2402,-0.2428,-0.2422,-0.2435,-0.2466,-0.2482,-0.2493,-0.2517,-0.2523,-0.2572,-0.2589,-0.2629,-0.2656,-0.2665,-0.2681,-0.2675,-0.266,-0.2611,-0.2613,-0.2681,-0.2688,-0.2695,-0.2616,-0.2617,-0.2592,-0.2592,-0.2591,0,-0.2396,-0.2397,-0.2422,-0.2416,-0.2429,-0.2476,-0.2483,-0.2492,-0.2535,-0.2569,-0.2553,-0.2634,-0.2649,-0.269,-0.2647,-0.2654,-0.2653,-0.2637,-0.2673,-0.2682,-0.2691,-0.261,-0.2613,-0.2586,-0.2587,-0.2587,-0.2588,0,-0.2352,-0.2365,-0.2363,-0.2371,-0.2381,-0.2404,-0.2423,-0.2438,-0.246,-0.2481,-0.2539,-0.2592,-0.2649,-0.2591,-0.2622,-0.2651,-0.2605,-0.2661,-0.27,-0.2691,-0.2603,-0.2608,-0.2579,-0.2581,-0.2582,-0.2584,0,0,-0.231,-0.2341,-0.2333,-0.2358,-0.2379,-0.239,-0.239,-0.2436,-0.2469,-0.2483,-0.2528,-0.2559,-0.261,-0.264,-0.2648,-0.2686,-0.2666,-0.2687,-0.2693,-0.2609,-0.2708,-0.251,-0.2495,-0.2728,-0.2731,-0.2734,-0.2569,0,-0.2288,-0.2289,-0.2302,-0.2306,-0.2325,-0.237,-0.2376,-0.2414,-0.2448,-0.248,-0.2553,-0.2598,-0.2613,-0.2639,-0.2686,-0.2704,-0.2699,-0.27,-0.2735,-0.2734,-0.2565,-0.2505,-0.2334,-0.2164,-0.2574,-0.2575,-0.2576,0,-0.2227,-0.2254,-0.2263,-0.2334,-0.2349,-0.2348,-0.2414,-0.2428,-0.2489,-0.2527,-0.2602,-0.2648,-0.2703,-0.2724,-0.278,-0.2776,-0.275,-0.2747,-0.2741,-0.2633,-0.2553,-0.2271,-0.2158,-0.2585,-0.2584,-0.2583,-0.2583,0,-0.2177,-0.2222,-0.2245,-0.2254,-0.232,-0.235,-0.2391,-0.2448,-0.2467,-0.2559,-0.2566,-0.2689,-0.2705,-0.2779,-0.2728,-0.2778,-0.2738,-0.281,-0.2593,-0.2572,-0.2482,-0.2448,-0.287,-0.287,-0.287,-0.2871,-0.2871,0,-0.2136,-0.2149,-0.2232,-0.2235,-0.2279,-0.2338,-0.2386,-0.2437,-0.2496,-0.2492,-0.2593,-0.2592,-0.2736,-0.2703,-0.2715,-0.2607,-0.2724,-0.2594,-0.255,-0.2417,-0.2381,-0.2843,-0.2842,-0.2864,-0.2866,-0.2867,-0.2868,0,-0.2042,-0.2098,-0.2128,-0.2221,-0.2244,-0.2265,-0.2337,-0.2363,-0.2435,-0.242,-0.2441,-0.2506,-0.2484,-0.2506,-0.2552,-0.2525,-0.249,-0.2412,-0.2153,-0.2085,-0.2277,-0.2273,-0.222,-0.2213,-0.2206,-0.2201,-0.2196,0,-0.2,-0.2002,-0.2077,-0.2088,-0.2124,-0.2177,-0.22,-0.2302,-0.2294,-0.2332,-0.2284,-0.2288,-0.2235,-0.2156,-0.2132,-0.2061,-0.2227,-0.1862,-0.1987,-0.2264,-0.2227,-0.2233,-0.2237,-0.1754,-0.1746,-0.174,-0.1735,0,-0.1913,-0.1931,-0.1953,-0.1969,-0.1991,-0.2008,-0.2039,-0.2027,-0.2104,-0.2107,-0.2068,-0.205,-0.1941,-0.1815,-0.1687,-0.1655,-0.1883,-0.1728,-0.2124,-0.1944,-0.1813,-0.178,-0.1802,-0.1678,-0.1684,-0.1688,-0.1691,-0.1693,-0.1834,-0.1817,-0.1832,-0.1832,-0.1845,-0.1805,-0.1766,-0.1801,-0.1779,-0.174,-0.1817,-0.1733,-0.1706,-0.1457,-0.135,-0.1276,-0.1448,-0.1457,-0.1483,-0.1514,-0.149,-0.1356,-0.1121,-0.1123,-0.1125,-0.1127,-0.1128,0,-0.1729,-0.1707,-0.1697,-0.1666,-0.16,-0.1658,-0.1614,-0.1549,-0.1479,-0.1504,-0.1492,-0.1322,-0.1192,-0.1157,-0.0945,-0.0902,-0.0976,-0.0891,-0.1016,-0.1068,-0.1116,-0.1081,-0.0598,-0.0597,-0.0596,-0.0595,0,0,-0.1671,-0.1603,-0.1584,-0.1422,-0.139,-0.1236,-0.118,-0.1134,-0.1108,-0.1064,-0.1041,-0.1157,-0.112,-0.0892,-0.0808,-0.0666,-0.0879,-0.0628,-0.1043,-0.1241,-0.1288,-0.1411,-0.1409,0,0,0,0,0]},{"header":{"parameterUnit":"m.s-1","parameterCategory":2,"la1":30.2991,"la2":30.254,"lo1":-89.0895,"lo2":-89.0444,"dy":0.0017,"dx":0.0017,"nx":28,"ny":28,"refTime":"2024-07-06T09:00:00:Z","depth":"2","parameterNumber":3,"parameterNumberName":"V-component_of_CURRENTS"},"data":[0,0,0,0,0,0,0,0,0,0,0,0,0,0,0,0,0,0,0,0,0,0,0,0,0,0,0,0,0,0,0,0,0,0,0,0,0,0,0,0,0,0,0,0,0,0,0,0,0,0,0,0,0,0,0,0,0,0,-0.0438,-0.0436,0,-0.0215,-0.0212,-0.0209,-0.0095,-0.0095,-0.0095,-0.0096,0.0368,0.038,0.0393,0,0,0,0,0,0,0,0,0,0,0,0,0,-0.0579,-0.0578,-0.0438,-0.0436,-0.0433,-0.0216,-0.0212,-0.0208,-0.0095,-0.0095,-0.0095,-0.0096,0.0364,0.0379,0.0394,0,0,0,0,0,0,0,0,0,0,0,0,0,-0.0449,-0.0578,-0.0438,-0.0354,-0.0345,-0.0216,-0.0212,-0.0207,-0.0094,-0.0095,-0.0096,-0.0096,0.0359,0.0377,0.0396,0.0524,0,0,0.0454,0.0462,0,0,0,0,0,0,0,0,-0.0457,-0.0443,-0.0369,-0.036,-0.0349,-0.0188,-0.0092,0.0047,-0.0094,-0.0184,-0.0096,-0.0096,0.0202,0.0233,0.028,0.0546,0.0565,0.0456,0.0467,0.0475,0.0481,0,0,0,0,0,0,0,-0.0466,-0.0451,-0.0344,-0.0366,-0.0354,-0.0264,-0.0247,-0.0065,0.0018,-0.0176,-0.0169,-0.0152,0.0209,0.0261,0.0293,0.0572,0.0455,0.0472,0.0484,0.0491,0.0924,0.0924,0,0,0,0,0,0,-0.0513,-0.0461,-0.0352,-0.0338,-0.0411,-0.0262,-0.0243,-0.0235,0.0011,0.0044,-0.0152,-0.0148,0.0229,0.027,0.031,0.0395,0.0475,0.0493,0.0504,0.0923,0.0924,0.0924,0,0,0,0,0,0,-0.0517,-0.0506,-0.0361,-0.0398,-0.0374,-0.0261,-0.0251,-0.023,-0.0182,0.0025,0.0064,-0.0128,0.023,0.0283,0.0481,0.0418,0.0502,0.0519,0.0923,0.0924,0.0924,0.062,0,0,0,0,0,0,-0.0522,-0.0509,-0.0511,-0.0402,-0.0374,-0.0302,-0.0251,-0.0226,-0.0173,-0.0165,0.0061,0.0102,0.0234,0.0452,0.05,0.0445,0.0534,0.0923,0.0923,0.0924,0.063,0.061,0.0593,0,0,0,0,0,-0.0528,-0.0529,-0.0512,-0.0499,-0.0384,-0.0303,-0.0279,-0.0196,-0.0172,-0.0154,0.0012,0.0095,0.0484,0.047,0.0526,0.0474,0.0923,0.0923,0.0924,0.0639,0.0614,0.0593,0,0,0,0,0,0,-0.0579,-0.0514,-0.0494,-0.0473,-0.0406,-0.0286,-0.0257,-0.0205,-0.0064,-0.0046,0.0142,0.0198,0.0324,0.0474,0.0451,0.0602,0.0701,0.0712,0.0465,0.0444,0.0425,0.0421,0.0549,0,0,0,0,0,-0.0599,-0.0589,-0.0509,-0.0492,-0.0467,-0.0366,-0.0322,-0.027,-0.0139,-0.0082,0.0065,0.0233,0.0371,0.0466,0.0618,0.0746,0.0862,0.0741,0.0721,0.0704,0.0742,0.089,0.0886,0.0924,0.0924,0.0924,0,0,-0.0613,-0.0577,-0.0569,-0.0503,-0.0443,-0.0407,-0.0339,-0.0283,-0.025,-0.0043,0.006,0.0185,0.0393,0.0497,0.0565,0.0617,0.0731,0.0704,0.0687,0.0737,0.089,0.0886,0.0882,0.0924,0.0924,0.0924,0,0,-0.0632,-0.0609,-0.0606,-0.0563,-0.0495,-0.0436,-0.0432,-0.0327,-0.0282,-0.0157,-0.0039,0.0068,0.0308,0.0408,0.0501,0.0496,0.0621,0.0512,0.0428,0.0566,0.0563,0.0563,0.0585,0.059,0.0508,0.0507,0.0507,0,-0.0651,-0.0642,-0.0588,-0.0573,-0.0545,-0.0463,-0.0447,-0.0385,-0.0233,-0.0186,-0.0153,0.0128,0.0264,0.0392,0.0357,0.0445,0.0523,0.0473,0.0535,0.0539,0.0544,0.0569,0.0578,0.0493,0.0495,0.0496,0.0497,0,-0.0662,-0.0659,-0.0653,-0.0619,-0.0578,-0.0554,-0.048,-0.0438,-0.0382,-0.031,-0.0191,-0.0016,0.0156,0.016,0.0265,0.0338,0.037,0.0474,0.0571,0.0521,0.055,0.0564,0.0472,0.0477,0.0482,0.0485,0,0,-0.069,-0.0671,-0.0667,-0.0672,-0.0608,-0.0576,-0.0539,-0.0471,-0.0438,-0.0335,-0.0268,-0.0118,-0.0048,0.0064,0.0164,0.0262,0.028,0.0362,0.0376,0.0343,0.0507,0.0452,0.0463,0.0395,0.0399,0.0402,0.0467,0,-0.0715,-0.073,-0.0694,-0.0696,-0.07,-0.0632,-0.0602,-0.0531,-0.0455,-0.0373,-0.0246,-0.0131,-0.0079,-0.0017,0.0078,0.0279,0.0327,0.0249,0.0603,0.0612,0.0539,0.0484,0.046,0.0515,0.0483,0.0485,0.0487,0,-0.073,-0.0746,-0.0769,-0.0758,-0.075,-0.0736,-0.0678,-0.0633,-0.0512,-0.0449,-0.0335,-0.0209,-0.0071,-0.0011,0.0254,0.0205,0.0324,0.0447,0.0456,0.0548,0.059,0.0595,0.0546,0.0514,0.0512,0.051,0.0508,0,-0.0787,-0.0788,-0.0822,-0.0817,-0.079,-0.0786,-0.076,-0.0664,-0.0617,-0.0488,-0.0426,-0.024,-0.0121,0.008,0.0272,0.0298,0.0547,0.0635,0.0672,0.0665,0.0796,0.0795,0.0807,0.0807,0.0807,0.0807,0.0807,0,-0.0828,-0.0848,-0.0862,-0.0881,-0.0912,-0.0857,-0.0847,-0.0794,-0.0686,-0.0624,-0.0473,-0.0373,-0.0075,0.0091,0.0261,0.0474,0.0538,0.0653,0.0704,0.0674,0.0662,0.0829,0.083,0.0809,0.0809,0.0808,0.0808,0,-0.0874,-0.0884,-0.0931,-0.0942,-0.0946,-0.0968,-0.0925,-0.0903,-0.08,-0.0706,-0.0661,-0.0431,-0.0194,0.002,0.035,0.0461,0.0671,0.0711,0.0576,0.061,0.069,0.0676,0.0816,0.0816,0.0815,0.0814,0.0814,0,-0.0901,-0.0934,-0.0992,-0.103,-0.1042,-0.106,-0.1065,-0.098,-0.0925,-0.0743,-0.0686,-0.0456,-0.0276,0.0097,0.0361,0.0609,0.0637,0.0684,0.0759,0.0668,0.0704,0.0691,0.0678,0.0764,0.0763,0.0762,0.0762,0,-0.0953,-0.098,-0.1023,-0.1111,-0.1151,-0.1168,-0.115,-0.1121,-0.0991,-0.089,-0.0706,-0.0552,-0.0195,0.0123,0.0393,0.0537,0.0654,0.0678,0.0695,0.0747,0.0622,0.0654,0.0644,0.0756,0.0756,0.0757,0.0757,0.0757,-0.0989,-0.1044,-0.111,-0.1183,-0.123,-0.1243,-0.1232,-0.1172,-0.1082,-0.0878,-0.0756,-0.0496,-0.0206,0.025,0.0446,0.0633,0.0667,0.0732,0.0735,0.0738,0.0703,0.0583,0.0695,0.0696,0.0696,0.0696,0.0696,0,-0.1032,-0.1091,-0.117,-0.1248,-0.1288,-0.1296,-0.1254,-0.1189,-0.1079,-0.0887,-0.0707,-0.039,-0.0067,0.0231,0.0545,0.0709,0.0729,0.0718,0.0735,0.0739,0.0743,0.0709,0.0703,0.0704,0.0704,0.0705,0,0,-0.106,-0.1146,-0.119,-0.1272,-0.1309,-0.1301,-0.1268,-0.117,-0.1009,-0.0792,-0.0589,-0.0374,-0.002,0.0195,0.0411,0.0582,0.0611,0.0581,0.0556,0.0553,0.0555,0.0726,0.0674,0,0,0,0,0]}],[{"header":{"parameterUnit":"m.s-1","parameterCategory":2,"la1":30.2991,"la2":30.254,"lo1":-89.0895,"lo2":-89.0444,"dy":0.0017,"dx":0.0017,"nx":28,"ny":28,"refTime":"2024-07-06T09:00:00:Z","depth":"4","parameterNumber":2,"parameterNumberName":"U-component_of_CURRENTS"},"data":[0,0,0,0,0,0,0,0,0,0,0,0,0,0,0,0,0,0,0,0,0,0,0,0,0,0,0,0,0,0,0,0,0,0,0,0,0,0,0,0,0,0,0,0,0,0,0,0,0,0,0,0,0,0,0,0,0,0,-0.1455,-0.1455,0,-0.1466,-0.1466,-0.1467,-0.1482,-0.1482,-0.1482,-0.1482,-0.1482,-0.1482,-0.1482,0,0,0,0,0,0,0,0,0,0,0,0,0,-0.1471,-0.1471,-0.1455,-0.1455,-0.1455,-0.1466,-0.1466,-0.1467,-0.1482,-0.1482,-0.1482,-0.1482,-0.1482,-0.1482,-0.1482,0,0,0,0,0,0,0,0,0,0,0,0,0,-0.1475,-0.1471,-0.1455,-0.1461,-0.1461,-0.1465,-0.1466,-0.1467,-0.1482,-0.1482,-0.1482,-0.1481,-0.1482,-0.1482,-0.1482,-0.1487,0,0,-0.1483,-0.1483,0,0,0,0,0,0,0,0,-0.1475,-0.1475,-0.146,-0.146,-0.146,-0.1469,-0.1472,-0.1472,-0.1482,-0.1478,-0.1482,-0.1481,-0.1474,-0.1475,-0.1483,-0.1487,-0.1487,-0.1483,-0.1483,-0.1483,-0.1483,0,0,0,0,0,0,0,-0.1474,-0.1475,-0.1464,-0.146,-0.146,-0.147,-0.147,-0.1472,-0.148,-0.1479,-0.1479,-0.1473,-0.1475,-0.1483,-0.1483,-0.1487,-0.1483,-0.1483,-0.1483,-0.1483,-0.148,-0.148,0,0,0,0,0,0,-0.1464,-0.1474,-0.1463,-0.1464,-0.1462,-0.1469,-0.147,-0.147,-0.148,-0.1481,-0.1473,-0.1474,-0.1483,-0.1483,-0.1483,-0.1529,-0.1483,-0.1483,-0.1483,-0.148,-0.148,-0.148,0,0,0,0,0,0,-0.1464,-0.1463,-0.1463,-0.1466,-0.1466,-0.1468,-0.1468,-0.147,-0.1497,-0.1476,-0.1477,-0.1501,-0.1483,-0.1483,-0.1477,-0.1528,-0.1483,-0.1484,-0.148,-0.148,-0.148,-0.1595,0,0,0,0,0,0,-0.1465,-0.1463,-0.1475,-0.1465,-0.1465,-0.147,-0.1468,-0.147,-0.1491,-0.1492,-0.1499,-0.1498,-0.1483,-0.1477,-0.1477,-0.1527,-0.1484,-0.1481,-0.148,-0.148,-0.1592,-0.1599,-0.1605,0,0,0,0,0,-0.1465,-0.1473,-0.1476,-0.1475,-0.1476,-0.147,-0.1472,-0.1476,-0.1492,-0.1502,-0.1495,-0.1499,-0.1475,-0.1476,-0.1477,-0.1529,-0.1481,-0.148,-0.148,-0.1589,-0.1598,-0.1605,0,0,0,0,0,0,-0.1486,-0.1474,-0.1478,-0.1483,-0.1479,-0.1471,-0.1486,-0.1492,-0.1499,-0.1507,-0.1495,-0.1492,-0.1504,-0.1486,-0.1488,-0.1518,-0.148,-0.1479,-0.1562,-0.157,-0.1577,-0.1593,-0.1484,0,0,0,0,0,-0.1496,-0.1502,-0.1488,-0.1496,-0.1498,-0.1502,-0.1508,-0.1507,-0.1502,-0.1509,-0.1512,-0.1507,-0.1501,-0.1511,-0.1493,-0.1519,-0.1491,-0.1546,-0.1553,-0.156,-0.1568,-0.1549,-0.1556,-0.1478,-0.1478,-0.1478,0,0,-0.1506,-0.1501,-0.1505,-0.1502,-0.1508,-0.152,-0.1507,-0.1517,-0.1541,-0.1506,-0.1548,-0.1528,-0.1505,-0.1523,-0.153,-0.1522,-0.1567,-0.1559,-0.1565,-0.157,-0.1549,-0.1557,-0.1564,-0.1478,-0.1478,-0.1478,0,0,-0.1517,-0.1529,-0.1535,-0.154,-0.1542,-0.1545,-0.1554,-0.1557,-0.1576,-0.1592,-0.1575,-0.1581,-0.1581,-0.1582,-0.158,-0.1611,-0.1592,-0.161,-0.1681,-0.1664,-0.1671,-0.1677,-0.1662,-0.1666,-0.1628,-0.1629,-0.1629,0,-0.1534,-0.1539,-0.1536,-0.1547,-0.1563,-0.1563,-0.1583,-0.1601,-0.1605,-0.1621,-0.1612,-0.1617,-0.1612,-0.1639,-0.1656,-0.1636,-0.1613,-0.1665,-0.1677,-0.1682,-0.1686,-0.1669,-0.1672,-0.1634,-0.1633,-0.1633,-0.1632,0,-0.1539,-0.1562,-0.1571,-0.1592,-0.1609,-0.1624,-0.1641,-0.1668,-0.1692,-0.1701,-0.1727,-0.1709,-0.171,-0.1723,-0.171,-0.1746,-0.1716,-0.1681,-0.1669,-0.1702,-0.1681,-0.1682,-0.1642,-0.164,-0.1638,-0.1637,0,0,-0.1527,-0.1568,-0.1575,-0.1599,-0.1637,-0.1644,-0.17,-0.1734,-0.1762,-0.1784,-0.1813,-0.1838,-0.1827,-0.1821,-0.181,-0.182,-0.1848,-0.1781,-0.1777,-0.1789,-0.181,-0.1678,-0.1665,-0.1817,-0.1818,-0.1818,-0.1789,0,-0.1537,-0.1571,-0.1593,-0.1644,-0.1667,-0.1704,-0.1748,-0.1784,-0.1809,-0.1833,-0.1849,-0.1856,-0.1866,-0.1863,-0.1882,-0.1832,-0.1853,-0.1859,-0.1756,-0.1753,-0.165,-0.1663,-0.1819,-0.1789,-0.1789,-0.179,-0.179,0,-0.1526,-0.1557,-0.1607,-0.167,-0.1684,-0.1721,-0.1787,-0.1822,-0.1865,-0.1879,-0.1908,-0.1896,-0.1926,-0.1909,-0.1897,-0.1897,-0.1877,-0.185,-0.1847,-0.1683,-0.1621,-0.1741,-0.179,-0.179,-0.179,-0.179,-0.179,0,-0.1498,-0.1563,-0.1609,-0.1632,-0.1703,-0.1744,-0.1786,-0.184,-0.1861,-0.1903,-0.1899,-0.193,-0.1916,-0.191,-0.1882,-0.1883,-0.1844,-0.1825,-0.1697,-0.1687,-0.1769,-0.1763,-0.1827,-0.1827,-0.1827,-0.1827,-0.1827,0,-0.1481,-0.1519,-0.1603,-0.1625,-0.1673,-0.1737,-0.178,-0.1821,-0.1865,-0.1868,-0.1915,-0.1898,-0.1912,-0.189,-0.188,-0.1781,-0.1842,-0.1708,-0.1667,-0.1817,-0.1816,-0.177,-0.1764,-0.1826,-0.1826,-0.1827,-0.1827,0,-0.1428,-0.1489,-0.1537,-0.1628,-0.1656,-0.1688,-0.1761,-0.1774,-0.1835,-0.1834,-0.1843,-0.1865,-0.1817,-0.1823,-0.1787,-0.174,-0.1683,-0.1645,-0.1814,-0.1783,-0.1545,-0.1545,-0.148,-0.1475,-0.1471,-0.1467,-0.1465,0,-0.14,-0.1423,-0.1517,-0.1537,-0.1581,-0.164,-0.1662,-0.1743,-0.1748,-0.1793,-0.1767,-0.1753,-0.175,-0.1598,-0.1626,-0.1576,-0.1568,-0.1544,-0.1548,-0.154,-0.1508,-0.1515,-0.152,-0.1458,-0.1457,-0.1456,-0.1454,0,-0.134,-0.1384,-0.142,-0.1454,-0.1489,-0.1518,-0.1563,-0.1555,-0.1627,-0.1697,-0.1637,-0.16,-0.1535,-0.1497,-0.1464,-0.1441,-0.1555,-0.15,-0.1508,-0.1512,-0.1512,-0.1486,-0.1496,-0.144,-0.1442,-0.1443,-0.1444,0,-0.1288,-0.1289,-0.1329,-0.1343,-0.1382,-0.1369,-0.1416,-0.1415,-0.1432,-0.15,-0.1477,-0.1475,-0.1515,-0.1425,-0.1403,-0.1351,-0.1328,-0.1303,-0.1322,-0.1338,-0.1302,-0.1281,-0.11,0,0,0,0,0,-0.1227,-0.1204,-0.121,-0.1205,-0.1237,-0.1249,-0.1324,-0.1376,-0.1453,-0.137,-0.1422,-0.1364,-0.1296,-0.1305,-0.1215,-0.132,-0.133,-0.1212,-0.1312,-0.1358,-0.1375,-0.1344,0,0,0,0,0,0,-0.1179,-0.1184,-0.1164,-0.1077,-0.1048,-0.1055,-0.11,-0.1164,-0.1133,-0.1228,-0.1195,-0.1271,-0.122,-0.1305,-0.1176,-0.1178,-0.1214,-0.123,-0.1226,-0.1348,-0.1364,-0.1378,-0.1351,0,0,0,0,0]},{"header":{"parameterUnit":"m.s-1","parameterCategory":2,"la1":30.2991,"la2":30.254,"lo1":-89.0895,"lo2":-89.0444,"dy":0.0017,"dx":0.0017,"nx":28,"ny":28,"refTime":"2024-07-06T09:00:00:Z","depth":"4","parameterNumber":3,"parameterNumberName":"V-component_of_CURRENTS"},"data":[0,0,0,0,0,0,0,0,0,0,0,0,0,0,0,0,0,0,0,0,0,0,0,0,0,0,0,0,0,0,0,0,0,0,0,0,0,0,0,0,0,0,0,0,0,0,0,0,0,0,0,0,0,0,0,0,0,0,-0.0342,-0.0341,0,-0.0274,-0.0273,-0.0272,-0.0233,-0.0233,-0.0232,-0.0232,-0.0214,-0.0214,-0.0213,0,0,0,0,0,0,0,0,0,0,0,0,0,-0.0395,-0.0395,-0.0342,-0.0341,-0.034,-0.0274,-0.0273,-0.0272,-0.0233,-0.0233,-0.0232,-0.0232,-0.0214,-0.0214,-0.0213,0,0,0,0,0,0,0,0,0,0,0,0,0,-0.0355,-0.0395,-0.0343,-0.0312,-0.0309,-0.0274,-0.0273,-0.0272,-0.0233,-0.0233,-0.0232,-0.0232,-0.0214,-0.0214,-0.0213,-0.0217,0,0,-0.0212,-0.0212,0,0,0,0,0,0,0,0,-0.0357,-0.0353,-0.0318,-0.0314,-0.031,-0.0261,-0.0285,-0.0256,-0.0233,-0.0263,-0.0232,-0.0232,-0.0234,-0.0232,-0.022,-0.0217,-0.0216,-0.0212,-0.0212,-0.0212,-0.0212,0,0,0,0,0,0,0,-0.036,-0.0356,-0.0316,-0.0317,-0.0312,-0.0287,-0.0281,-0.0279,-0.0253,-0.026,-0.0257,-0.0248,-0.0233,-0.0221,-0.022,-0.0216,-0.0212,-0.0212,-0.0211,-0.0211,-0.0222,-0.0223,0,0,0,0,0,0,-0.037,-0.0359,-0.0318,-0.0314,-0.0333,-0.0287,-0.028,-0.0278,-0.0251,-0.0246,-0.0248,-0.0246,-0.0222,-0.022,-0.0219,-0.0207,-0.0212,-0.0211,-0.0211,-0.0222,-0.0222,-0.0223,0,0,0,0,0,0,-0.0371,-0.0367,-0.0321,-0.0334,-0.0326,-0.0286,-0.0283,-0.0277,-0.0266,-0.0242,-0.0238,-0.0245,-0.0221,-0.022,-0.0221,-0.0207,-0.0211,-0.0211,-0.0221,-0.0222,-0.0222,-0.0193,0,0,0,0,0,0,-0.0373,-0.0368,-0.0374,-0.0335,-0.0325,-0.0309,-0.0283,-0.0275,-0.0261,-0.0258,-0.0238,-0.0236,-0.0221,-0.0222,-0.0221,-0.0206,-0.021,-0.022,-0.0221,-0.0222,-0.0193,-0.0193,-0.0192,0,0,0,0,0,-0.0375,-0.0383,-0.0375,-0.037,-0.0334,-0.0309,-0.0303,-0.0273,-0.0261,-0.0262,-0.0248,-0.0236,-0.0227,-0.0222,-0.0221,-0.0205,-0.022,-0.0221,-0.0222,-0.0193,-0.0193,-0.0192,0,0,0,0,0,0,-0.0405,-0.0378,-0.0369,-0.0367,-0.0345,-0.0303,-0.03,-0.0279,-0.0266,-0.0268,-0.0243,-0.024,-0.0239,-0.0236,-0.023,-0.0216,-0.0222,-0.0223,-0.0201,-0.02,-0.02,-0.0204,-0.021,0,0,0,0,0,-0.0417,-0.0418,-0.0385,-0.0385,-0.0377,-0.0341,-0.0329,-0.0311,-0.029,-0.0283,-0.0263,-0.0252,-0.0242,-0.0233,-0.0233,-0.0222,-0.0206,-0.0215,-0.0214,-0.0213,-0.0219,-0.0167,-0.0161,-0.0227,-0.0227,-0.0227,0,0,-0.0429,-0.0414,-0.0415,-0.0393,-0.0374,-0.0362,-0.0333,-0.0322,-0.0306,-0.0286,-0.0268,-0.0257,-0.0245,-0.0232,-0.0229,-0.0223,-0.0189,-0.0215,-0.0214,-0.022,-0.0167,-0.016,-0.0154,-0.0228,-0.0227,-0.0227,0,0,-0.0447,-0.0441,-0.0446,-0.0433,-0.041,-0.0386,-0.0385,-0.0349,-0.0329,-0.0316,-0.0293,-0.0271,-0.0263,-0.023,-0.0218,-0.0219,-0.0197,-0.0226,-0.021,-0.0158,-0.0152,-0.0146,-0.0121,-0.0113,-0.0213,-0.0213,-0.0213,0,-0.0461,-0.0463,-0.0443,-0.0441,-0.0432,-0.0399,-0.0398,-0.0371,-0.0337,-0.032,-0.0316,-0.0271,-0.0256,-0.0214,-0.0212,-0.0212,-0.0195,-0.0206,-0.0154,-0.0148,-0.0142,-0.0118,-0.0109,-0.0212,-0.0212,-0.0212,-0.0212,0,-0.0477,-0.0481,-0.0484,-0.047,-0.0458,-0.0457,-0.0419,-0.0403,-0.0377,-0.0342,-0.0307,-0.0272,-0.0243,-0.0226,-0.0218,-0.0168,-0.0173,-0.0164,-0.0147,-0.0133,-0.0109,-0.0101,-0.021,-0.021,-0.0211,-0.0211,0,0,-0.0496,-0.0496,-0.0497,-0.0503,-0.0478,-0.0471,-0.0447,-0.0411,-0.0393,-0.0346,-0.031,-0.0265,-0.0238,-0.0224,-0.0193,-0.0137,-0.0076,-0.0134,-0.0132,-0.0096,0.0019,0.0006,0.0014,-0.0051,-0.0049,-0.0048,0.0019,0,-0.0513,-0.0532,-0.0516,-0.0526,-0.0534,-0.0501,-0.0482,-0.0446,-0.0407,-0.0366,-0.0298,-0.0266,-0.0237,-0.0221,-0.0158,-0.0108,-0.0053,-0.0097,-0.0014,-0.0012,-0.0012,0.0025,-0.0043,0.0025,0.0027,0.0028,0.0029,0,-0.0528,-0.0542,-0.0566,-0.0566,-0.0564,-0.0564,-0.0534,-0.0511,-0.0441,-0.0409,-0.0345,-0.0298,-0.0216,-0.0197,-0.0072,-0.0103,-0.0047,0.0003,0.0008,-0.001,-0.0009,0.0006,0.0045,0.0044,0.0043,0.0042,0.0041,0,-0.0562,-0.0572,-0.06,-0.0602,-0.0594,-0.0597,-0.0585,-0.0532,-0.0511,-0.0438,-0.0413,-0.0308,-0.0263,-0.0164,-0.0062,-0.0067,0.0071,0.008,0.0125,0.0124,0.0103,0.0096,0.0171,0.0171,0.0171,0.0171,0.0171,0,-0.0585,-0.0606,-0.0628,-0.0646,-0.0676,-0.0647,-0.0655,-0.0623,-0.0568,-0.054,-0.0445,-0.0391,-0.0252,-0.0154,-0.0063,0.0055,0.0074,0.0131,0.0149,0.011,0.0103,0.0109,0.0101,0.0173,0.0173,0.0172,0.0172,0,-0.0614,-0.0629,-0.067,-0.0689,-0.07,-0.0725,-0.072,-0.0715,-0.0655,-0.0614,-0.0592,-0.0452,-0.0318,-0.0182,-0.0021,0.0043,0.0161,0.0196,0.013,0.0142,0.0176,0.0168,0.0254,0.0254,0.0255,0.0255,0.0255,0,-0.0629,-0.0657,-0.0719,-0.0758,-0.0775,-0.0805,-0.0822,-0.0775,-0.0752,-0.0644,-0.0617,-0.048,-0.0379,-0.0153,-0.0017,0.0159,0.0183,0.0225,0.0218,0.018,0.0189,0.0181,0.0173,0.0255,0.0255,0.0256,0.0256,0,-0.0659,-0.0693,-0.0731,-0.0819,-0.0865,-0.0896,-0.0904,-0.0888,-0.0813,-0.0767,-0.062,-0.0482,-0.0328,-0.0146,-0.0013,0.0115,0.0189,0.0228,0.0228,0.0222,0.0182,0.0189,0.0181,0.0256,0.0256,0.0256,0.0256,0,-0.0685,-0.073,-0.0797,-0.0864,-0.093,-0.0959,-0.0958,-0.0904,-0.0863,-0.0721,-0.0677,-0.0487,-0.0371,-0.0169,-0.0041,0.0079,0.0109,0.0131,0.0137,0.0137,0.0083,0.0014,0.006,0,0,0,0,0,-0.0702,-0.0757,-0.0831,-0.0907,-0.0971,-0.0999,-0.0994,-0.0969,-0.0894,-0.0799,-0.0726,-0.0571,-0.034,-0.0222,-0.0103,-0.0059,0.0104,0.008,0.0124,0.0261,0.026,0.0216,0,0,0,0,0,0,-0.0719,-0.0796,-0.0835,-0.0923,-0.0973,-0.1029,-0.1024,-0.0977,-0.0893,-0.08,-0.0664,-0.0569,-0.0337,-0.0413,-0.0109,-0.007,-0.0032,0.02,0.0202,0.0262,0.0261,0.026,0.0215,0,0,0,0,0]}]]